DW4879 Weather Reports


time (UTC)temp
C
wind
direction
speed
KPH
gust
KPH
rain 1hr
cm
rain 24hr
cm
rain mn
cm
humidity
%
barometer
mb
20260502232059 20 134 1.6 12.9 0.00 0.00 0.00 20 1021.3
20260502231551 20 178 6.4 12.9 0.00 0.00 0.00 19 1021.3
20260502231059 20 156 4.8 11.3 0.00 0.00 0.00 21 1021.3
20260502230603 20 116 0.0 11.3 0.00 0.00 0.00 21 1021.4
20260502230007 20 167 4.8 14.5 0.00 0.00 0.00 20 1021.4
20260502225604 20 120 6.4 14.5 0.00 0.00 0.00 21 1021.3
20260502225005 20 254 3.2 9.7 0.00 0.00 0.00 21 1021.3
20260502224603 20 156 4.8 9.7 0.00 0.00 0.00 20 1021.4
20260502224002 20 308 3.2 12.9 0.00 0.00 0.00 20 1021.4
20260502223558 20 200 8.0 12.9 0.00 0.00 0.00 20 1021.4
20260502223049 20 186 6.4 11.3 0.00 0.00 0.00 20 1021.5
20260502222557 21 117 6.4 16.1 0.00 0.00 0.00 20 1021.5
20260502222106 20 126 9.7 16.1 0.00 0.00 0.00 20 1021.6
20260502221505 20 121 8.0 14.5 0.00 0.00 0.00 21 1021.7
20260502221102 20 108 6.4 19.3 0.00 0.00 0.00 20 1021.7
20260502220502 21 149 9.7 19.3 0.00 0.00 0.00 19 1021.7
20260502220059 22 175 9.7 16.1 0.00 0.00 0.00 19 1021.9
20260502215606 22 174 4.8 11.3 0.00 0.00 0.00 19 1021.9
20260502215008 21 140 4.8 14.5 0.00 0.00 0.00 19 1022.0
20260502214602 21 163 8.0 14.5 0.00 0.00 0.00 19 1022.0
20260502214009 21 175 9.7 16.1 0.00 0.00 0.00 19 1022.2
20260502213601 21 190 4.8 16.1 0.00 0.00 0.00 20 1022.4
20260502213008 21 168 6.4 16.1 0.00 0.00 0.00 20 1022.5
20260502212604 21 315 3.2 16.1 0.00 0.00 0.00 20 1022.6
20260502212004 21 172 4.8 16.1 0.00 0.00 0.00 21 1022.6
20260502211513 21 355 3.2 12.9 0.00 0.00 0.00 22 1022.7
20260502211105 20 345 4.8 12.9 0.00 0.00 0.00 22 1022.8
20260502210507 20 350 1.6 9.7 0.00 0.00 0.00 23 1022.9
20260502205505 19 59 0.0 11.3 0.00 0.00 0.00 24 1022.9
20260502205100 19 274 3.2 11.3 0.00 0.00 0.00 25 1023.0
20260502204552 18 63 3.2 9.7 0.00 0.00 0.00 24 1023.0
20260502204059 18 87 3.2 12.9 0.00 0.00 0.00 24 1023.0
20260502203549 19 134 3.2 16.1 0.00 0.00 0.00 23 1023.1
20260502203059 20 177 6.4 16.1 0.00 0.00 0.00 23 1023.1
20260502202546 20 165 8.0 16.1 0.00 0.00 0.00 23 1023.2
20260502202037 20 349 4.8 17.7 0.00 0.00 0.00 24 1023.2
20260502201545 20 82 6.4 17.7 0.00 0.00 0.00 23 1023.2
20260502201037 20 154 4.8 12.9 0.00 0.00 0.00 23 1023.2
20260502200544 20 67 1.6 9.7 0.00 0.00 0.00 23 1023.4
20260502200108 20 38 3.2 11.3 0.00 0.00 0.00 23 1023.3
20260502195557 20 68 4.8 11.3 0.00 0.00 0.00 22 1023.3
20260502195048 20 127 3.2 9.7 0.00 0.00 0.00 23 1023.3
20260502194608 20 84 3.2 9.7 0.00 0.00 0.00 23 1023.4
20260502194047 20 264 1.6 9.7 0.00 0.00 0.00 22 1023.4
20260502193555 19 27 1.6 19.3 0.00 0.00 0.00 25 1023.5
20260502193046 20 109 11.3 19.3 0.00 0.00 0.00 25 1023.6
20260502192551 20 124 4.8 14.5 0.00 0.00 0.00 25 1023.5
20260502192058 18 117 1.6 8.0 0.00 0.00 0.00 27 1023.7
20260502191556 18 76 3.2 12.9 0.00 0.00 0.00 28 1023.7
20260502191057 18 79 6.4 12.9 0.00 0.00 0.00 28 1023.8
20260502190548 18 53 3.2 16.1 0.00 0.00 0.00 28 1023.9
20260502190054 18 111 6.4 16.1 0.00 0.00 0.00 30 1023.9
20260502185544 18 90 4.8 17.7 0.00 0.00 0.00 31 1024.0
20260502185035 18 100 6.4 17.7 0.00 0.00 0.00 30 1023.9
20260502184545 18 117 6.4 19.3 0.00 0.00 0.00 31 1024.1
20260502184051 18 204 8.0 19.3 0.00 0.00 0.00 30 1024.1
20260502183556 17 90 4.8 16.1 0.00 0.00 0.00 30 1024.2
20260502183049 18 159 8.0 16.1 0.00 0.00 0.00 30 1024.2
20260502182556 18 225 4.8 16.1 0.00 0.00 0.00 30 1024.3
20260502182100 18 169 4.8 14.5 0.00 0.00 0.00 31 1024.3
20260502181516 18 174 4.8 17.7 0.00 0.00 0.00 32 1024.5
20260502181059 18 152 8.0 19.3 0.00 0.00 0.00 33 1024.6
20260502180502 17 106 6.4 17.7 0.00 0.00 0.00 32 1024.6
20260502164050 15 165 9.7 17.7 0.00 0.00 0.00 42 1025.1
20260502163557 14 103 8.0 17.7 0.00 0.00 0.00 43 1025.0
20260502163105 14 125 9.7 19.3 0.00 0.00 0.00 42 1025.1
20260502162555 14 184 11.3 17.7 0.00 0.00 0.00 43 1025.1
20260502162104 13 48 4.8 22.5 0.00 0.00 0.00 45 1025.1
20260502161554 13 98 9.7 22.5 0.00 0.00 0.00 44 1025.1
20260502161044 13 105 9.7 19.3 0.00 0.00 0.00 45 1025.1
20260502160555 13 107 11.3 24.1 0.00 0.00 0.00 44 1025.1
20260502160106 13 144 8.0 24.1 0.00 0.00 0.00 45 1025.2
20260502152002 11 112 9.7 19.3 0.00 0.00 0.00 49 1025.1
20260502151610 11 133 8.0 19.3 0.00 0.00 0.00 50 1025.3
20260502151048 11 108 14.5 19.3 0.00 0.00 0.00 50 1025.3
20260502150556 11 129 9.7 17.7 0.00 0.00 0.00 51 1025.3
20260502150131 11 101 11.3 17.7 0.00 0.00 0.00 51 1025.3
20260502130536 6 90 12.9 24.1 0.00 0.00 0.00 64 1024.5
20260502123546 5 71 9.7 20.9 0.00 0.00 0.00 66 1024.0
20260502123054 5 90 9.7 20.9 0.00 0.00 0.00 66 1024.0
20260502122545 5 46 9.7 17.7 0.00 0.00 0.00 66 1023.9
20260502122034 5 88 8.0 17.7 0.00 0.00 0.00 66 1023.9
20260502121542 5 78 9.7 19.3 0.00 0.00 0.00 66 1023.9
20260502121035 5 69 11.3 19.3 0.00 0.00 0.00 66 1023.9
20260502120541 5 61 11.3 20.9 0.00 0.00 0.00 66 1023.9
20260502120105 5 45 11.3 24.1 0.00 0.00 0.00 66 1023.8
20260502115558 5 80 12.9 24.1 0.00 0.00 0.00 66 1023.8
20260502115045 5 48 9.7 24.1 0.00 0.00 0.00 66 1023.8
20260502114603 5 71 12.9 20.9 0.00 0.00 0.00 65 1023.8
20260502114044 5 74 11.3 22.5 0.00 0.00 0.00 65 1023.9
20260502113534 5 82 11.3 22.5 0.00 0.00 0.00 65 1023.9
20260502113055 5 87 14.5 25.7 0.00 0.00 0.00 65 1023.8
20260502112550 6 71 11.3 27.4 0.00 0.00 0.00 65 1023.8
20260502112057 6 39 12.9 27.4 0.00 0.00 0.00 65 1023.8
20260502111549 6 51 11.3 25.7 0.00 0.00 0.00 65 1023.8
20260502111058 6 39 14.5 25.7 0.00 0.00 0.00 65 1023.8
20260502110603 6 78 14.5 22.5 0.00 0.00 0.00 65 1023.7
20260502110005 6 82 11.3 22.5 0.00 0.00 0.00 65 1023.7
20260502105601 6 86 12.9 22.5 0.00 0.00 0.00 65 1023.6
20260502105005 6 60 12.9 22.5 0.00 0.00 0.00 65 1023.6
20260502104559 6 42 12.9 22.5 0.00 0.00 0.00 65 1023.7
20260502104004 6 73 11.3 22.5 0.00 0.00 0.00 65 1023.7
20260502103558 6 55 11.3 24.1 0.00 0.00 0.00 64 1023.7
20260502103109 6 71 12.9 20.9 0.00 0.00 0.00 64 1023.6
20260502102559 6 76 9.7 25.7 0.00 0.00 0.00 64 1023.7
20260502102046 6 124 14.5 25.7 0.00 0.00 0.00 64 1023.5
20260502101607 6 34 11.3 22.5 0.00 0.00 0.00 64 1023.5
20260502101100 6 58 12.9 22.5 0.00 0.00 0.00 64 1023.5
20260502100502 6 40 11.3 22.5 0.00 0.00 0.00 64 1023.5
20260502091046 6 49 9.7 19.3 0.00 0.00 0.00 64 1023.0
20260502090535 6 57 9.7 17.7 0.00 0.00 0.00 64 1022.9
20260502071057 7 95 9.7 19.3 0.00 0.00 0.00 58 1022.5
20260502070604 7 84 6.4 17.7 0.00 0.00 0.00 58 1022.6
20260502070012 7 88 9.7 19.3 0.00 0.00 0.00 57 1022.5
20260502065603 7 82 6.4 19.3 0.00 0.00 0.00 56 1022.5
20260502065007 7 93 8.0 19.3 0.00 0.00 0.00 56 1022.5
20260502064600 7 61 9.7 19.3 0.00 0.00 0.00 56 1022.5
20260502064004 7 86 9.7 17.7 0.00 0.00 0.00 55 1022.4
20260502063559 8 79 8.0 16.1 0.00 0.00 0.00 55 1022.4
20260502063055 8 71 8.0 17.7 0.00 0.00 0.00 55 1022.4
20260502062558 8 84 9.7 17.7 0.00 0.00 0.00 55 1022.3
20260502062048 8 95 6.4 14.5 0.00 0.00 0.00 54 1022.3
20260502061558 8 99 6.4 14.5 0.00 0.00 0.00 54 1022.3
20260502061102 8 65 6.4 14.5 0.00 0.00 0.00 54 1022.2
20260502060505 8 66 6.4 14.5 0.00 0.00 0.00 54 1022.2
20260502060109 8 65 8.0 14.5 0.00 0.00 0.00 54 1022.2
20260502055550 8 54 6.4 12.9 0.00 0.00 0.00 53 1022.2
20260502055059 8 71 6.4 11.3 0.00 0.00 0.00 53 1022.1
20260502054626 8 69 6.4 11.3 0.00 0.00 0.00 53 1022.0
20260502054006 8 86 6.4 11.3 0.00 0.00 0.00 52 1021.9
20260502053602 9 73 4.8 11.3 0.00 0.00 0.00 52 1021.9
20260502053005 9 59 4.8 12.9 0.00 0.00 0.00 52 1021.8
20260502052601 9 92 6.4 12.9 0.00 0.00 0.00 52 1021.7
20260502052052 10 81 6.4 14.5 0.00 0.00 0.00 51 1021.8
20260502051558 10 66 6.4 14.5 0.00 0.00 0.00 50 1021.7
20260502051048 10 82 6.4 17.7 0.00 0.00 0.00 49 1021.8
20260502050538 10 94 9.7 19.3 0.00 0.00 0.00 50 1021.8
20260502050048 10 98 9.7 19.3 0.00 0.00 0.00 51 1021.7
20260502045540 10 92 11.3 22.5 0.00 0.00 0.00 50 1021.6
20260502045046 10 119 14.5 20.9 0.00 0.00 0.00 50 1021.6
20260502044552 10 66 11.3 20.9 0.00 0.00 0.00 50 1021.5
20260502044102 10 84 9.7 19.3 0.00 0.00 0.00 49 1021.5
20260502043605 11 57 9.7 27.4 0.00 0.00 0.00 48 1021.4
20260502043007 11 121 11.3 27.4 0.00 0.00 0.00 48 1021.4
20260502042604 11 105 9.7 20.9 0.00 0.00 0.00 48 1021.3
20260502042006 11 136 12.9 20.9 0.00 0.00 0.00 48 1021.3
20260502041602 11 117 11.3 20.9 0.00 0.00 0.00 47 1021.2
20260502041004 11 116 11.3 20.9 0.00 0.00 0.00 47 1021.2
20260502040600 11 68 8.0 19.3 0.00 0.00 0.00 47 1021.2
20260502040001 11 80 11.3 25.7 0.00 0.00 0.00 47 1021.1
20260502035600 11 82 16.1 25.7 0.00 0.00 0.00 46 1021.0
20260502035103 11 77 12.9 25.7 0.00 0.00 0.00 46 1020.9
20260502034509 11 105 16.1 32.2 0.00 0.00 0.00 45 1020.8
20260502034102 11 75 16.1 32.2 0.00 0.00 0.00 45 1020.8
20260502033504 11 89 16.1 27.4 0.00 0.00 0.00 43 1020.6
20260502033100 12 98 11.3 25.7 0.00 0.00 0.00 42 1020.5
20260502032501 12 107 16.1 35.4 0.00 0.00 0.00 41 1020.5
20260502032058 12 84 12.9 35.4 0.00 0.00 0.00 40 1020.5
20260502031548 12 88 12.9 32.2 0.00 0.00 0.00 38 1020.4
20260502031056 12 51 19.3 32.2 0.00 0.00 0.00 38 1020.2
20260502030547 12 84 16.1 29.0 0.00 0.00 0.00 38 1020.2
20260502030105 12 55 16.1 30.6 0.00 0.00 0.00 36 1020.0
20260502025545 12 72 19.3 27.4 0.00 0.00 0.00 35 1019.8
20260502025036 12 68 14.5 20.9 0.00 0.00 0.00 34 1019.7
20260502024544 12 81 11.3 24.1 0.00 0.00 0.00 34 1019.6
20260502024050 13 103 14.5 24.1 0.00 0.00 0.00 33 1019.5
20260502023557 13 81 9.7 19.3 0.00 0.00 0.00 32 1019.4
20260502023048 13 71 8.0 16.1 0.00 0.00 0.00 31 1019.2
20260502022555 13 70 8.0 16.1 0.00 0.00 0.00 31 1019.1
20260502022101 13 66 6.4 17.7 0.00 0.00 0.00 29 1019.1
20260502021504 13 74 8.0 17.7 0.00 0.00 0.00 29 1019.0
20260502021105 14 85 4.8 14.5 0.00 0.00 0.00 29 1018.9
20260502020502 14 72 4.8 17.7 0.00 0.00 0.00 29 1018.8
20260502015504 15 45 9.7 19.3 0.00 0.00 0.00 29 1018.7
20260502015100 15 69 9.7 20.9 0.00 0.00 0.00 30 1018.7
20260502014604 15 55 9.7 22.5 0.00 0.00 0.00 30 1018.6
20260502014055 15 51 12.9 29.0 0.00 0.00 0.00 30 1018.5
20260502013601 15 36 14.5 29.0 0.00 0.00 0.00 30 1018.4
20260502013003 16 26 11.3 25.7 0.00 0.00 0.00 29 1018.4
20260502012559 16 67 14.5 25.7 0.00 0.00 0.00 27 1018.3
20260502012002 16 64 11.3 24.1 0.00 0.00 0.00 25 1018.1
20260502011507 17 355 11.3 29.0 0.00 0.00 0.00 18 1018.0
20260502011015 17 23 16.1 29.0 0.00 0.00 0.00 18 1017.8
20260502010521 17 313 14.5 24.1 0.00 0.00 0.00 16 1017.7
20260502010026 17 329 12.9 20.9 0.00 0.00 0.00 16 1017.7
20260502005532 18 325 11.3 20.9 0.00 0.00 0.00 15 1017.6
20260502005040 18 310 11.3 27.4 0.00 0.00 0.00 15 1017.6
20260502004547 18 287 9.7 22.5 0.00 0.00 0.00 15 1017.6
20260502004054 18 311 12.9 25.7 0.00 0.00 0.00 16 1017.5
20260502003545 18 298 16.1 25.7 0.00 0.00 0.00 15 1017.5
20260502003055 18 287 6.4 19.3 0.00 0.00 0.00 14 1017.5
20260502002559 18 311 11.3 25.7 0.00 0.00 0.00 14 1017.5
20260502002001 18 271 11.3 25.7 0.00 0.00 0.00 14 1017.4
20260502001557 18 263 16.1 25.7 0.00 0.00 0.00 14 1017.5
20260502001104 18 319 4.8 25.7 0.00 0.00 0.00 14 1017.3
20260502000505 18 288 14.5 25.7 0.00 0.00 0.00 13 1017.3
20260502000013 18 277 6.4 22.5 0.00 0.00 0.00 13 1017.3
20260501235508 18 273 4.8 20.9 0.00 0.00 0.00 13 1017.2
20260501235016 18 254 11.3 22.5 0.00 0.00 0.00 13 1017.4
20260501234502 18 276 9.7 32.2 0.00 0.00 0.00 12 1017.4
20260501234008 18 274 12.9 32.2 0.00 0.00 0.00 13 1017.3
20260501233602 18 317 11.3 29.0 0.00 0.00 0.00 13 1017.4
20260501233004 18 220 16.1 29.0 0.00 0.00 0.00 14 1017.3